Regional Weather Roundup
Issued by NWS

Home | Current Version | Previous Version | Graphics & Text | Print | Product List | Glossary On
Versions: 1 2 3 4 5 6 7 8 9 10 11 12 13 14 15 16 17 18 19 20 21 22 23 24 25 26 27 28 29 30 31 32 33 34 35 36 37 38 39 40 41 42 43 44 45 46 47 48 49 50
000
ASUS43 KDMX 300607
RWRIA

WEATHER ROUNDUP FOR IOWA
NATIONAL WEATHER SERVICE DES MOINES IA
100 AM CDT THU JUL 30 2015

NOTE: "FAIR" INDICATES FEW OR NO CLOUDS BELOW 12,000 FEET WITH NO
SIGNIFICANT WEATHER AND/OR OBSTRUCTIONS TO VISIBILITY.

* - THESE STATIONS ARE NOT NWS STATIONS...THUS NOT UNDER NWS
QUALITY CONTROL.  THEY ALSO DO NOT REPORT WEATHER SUCH
AS PRECIPITATION OR FOG.

IAZ001>003-012>014-020>022-031>034-043>046-300700-
   NORTHWEST IOWA

CITY           SKY/WX    TMP DP  RH WIND       PRES   REMARKS
CARROLL *      CLEAR     64  61  88 W8        30.14S
CHEROKEE *     CLEAR     64  62  93 S5        30.13S
DENISON *      CLEAR     64  61  88 W5        30.14S
LE MARS *      CLEAR     63  61  94 CALM      30.14R
ORANGE CITY *  CLEAR     63  57  82 CALM      30.13R
SHELDON *      CLEAR     57  57 100 CALM      30.12R
SIOUX CITY     CLEAR     68  59  73 SW10      30.13S
6HR MIN TEMP:  67; 6HR MAX TEMP:  82;

SPENCER        CLEAR     61  57  87 CALM      30.13R
6HR MIN TEMP:  60; 6HR MAX TEMP:  81;

STORM LAKE *   CLEAR     64  59  82 SW8       30.15R
$$

IAZ055>058-069>071-079>083-090>094-300700-
   SOUTHWEST IOWA

CITY           SKY/WX    TMP DP  RH WIND       PRES   REMARKS
ATLANTIC *     CLEAR     63  63 100 CALM      30.17R
AUDUBON *      CLEAR     64  59  82 CALM      30.17S
CLARINDA *     CLEAR     64  64 100 CALM      30.19S
COUNCIL BLFS *   N/A     66  59  77 SW8       30.17S
CRESTON *      CLEAR     66  61  82 SW7       30.17S
HARLAN  *      CLEAR     61  61 100 SW3       30.20R
LAMONI         CLEAR     70  60  70 W5        30.17S
6HR MIN TEMP:  69; 6HR MAX TEMP:  80;

RED OAK *      CLEAR     63  63 100 CALM      30.17S
SHENANDOAH *   CLEAR     64  63  94 CALM      30.18S
$$

IAZ047>049-059>061-072>074-084-300700-
   CENTRAL IOWA

CITY           SKY/WX    TMP DP  RH WIND       PRES   REMARKS
AMES           CLEAR     64  60  87 W9        30.12R
6HR MIN TEMP:  64; 6HR MAX TEMP:  79;

ANKENY *       CLEAR     68  61  77 W7        30.13S
CHARITON *     CLEAR     66  59  77 W7        30.15S
DES MOINES     CLEAR     68  61  78 W5        30.13R
6HR MIN TEMP:  68; 6HR MAX TEMP:  83;

GRINNELL*      CLEAR     64  59  82 SW8       30.14R
KNOXVILLE *    CLEAR     66  59  77 SW7       30.13S
MARSHALLTOWN     N/A     63  60  90 W6        30.11S
6HR MIN TEMP:  63; 6HR MAX TEMP:  79;

PELLA *        CLEAR     67  64  92 W3        30.14S
PERRY *          N/A     64  61  88 W6        30.14S
$$

IAZ004>006-015-016-023>025-035-036-300700-
   NORTH CENTRAL IOWA

CITY           SKY/WX    TMP DP  RH WIND       PRES   REMARKS
ALGONA *       CLEAR     63  59  88 SW7       30.12R
CLARION *      CLEAR     61  59  94 SW3       30.12R
ESTHERVILLE    CLEAR     59  57  93 SW6       30.11R
6HR MIN TEMP:  59; 6HR MAX TEMP:  79;

FORT DODGE *   CLEAR     63  57  82 SW3       30.13S
MASON CITY     CLEAR     68  61  78 W9        30.11R
6HR MIN TEMP:  67; 6HR MAX TEMP:  79;

FOREST CITY *  CLEAR     61  59  94 CALM      30.10S
IOWA FALLS *     N/A     64  60  85 SW9       30.12S
$$

IAZ007>011-017>019-026>030-037>042-050>054-066-300700-
   NORTHEAST IOWA

CITY           SKY/WX    TMP DP  RH WIND       PRES   REMARKS
CEDAR RAPIDS   CLEAR     64  61  90 W7        30.10R
6HR MIN TEMP:  64; 6HR MAX TEMP:  77;

CHARLES CITY * CLEAR     64  61  88 W9        30.10R
CLINTON *      CLEAR     61  55  82 W9        30.10S
DECORAH *      CLEAR     66  59  77 VRB6      30.06S
DUBUQUE        CLEAR     65  59  81 W12       30.08S
6HR MIN TEMP:  64; 6HR MAX TEMP:  79;

MONTICELLO *   CLEAR     63  61  94 CALM      30.08S
OELWEIN *        N/A     63  61  94 W6        30.10S
WATERLOO       CLEAR     67  60  78 W8        30.09R
6HR MIN TEMP:  66; 6HR MAX TEMP:  80;

$$

IAZ064-065-067-068-078-300700-
   EAST CENTRAL IOWA

CITY           SKY/WX    TMP DP  RH WIND       PRES   REMARKS
DAVENPORT      CLEAR     64  60  87 W6        30.09S
6HR MIN TEMP:  64; 6HR MAX TEMP:  79;

IOWA CITY      CLEAR     65  60  84 W5        30.11S
6HR MIN TEMP:  65; 6HR MAX TEMP:  81;

MT. PLEASANT * CLEAR     65  61  85 SW5       30.13S
MUSCATINE *    CLEAR     66  61  82 CALM      30.10S
QUAD CITIES    CLEAR     66  59  78 SW3       30.09S
6HR MIN TEMP:  65; 6HR MAX TEMP:  82;

$$

IAZ062-063-075>077-085>089-095>099-300700-
   SOUTHEAST IOWA

CITY           SKY/WX    TMP DP  RH WIND       PRES   REMARKS
BURLINGTON     CLEAR     67  62  84 W3        30.12S
6HR MIN TEMP:  67; 6HR MAX TEMP:  80;

FAIRFIELD *    CLEAR     64  61  88 W6        30.13S
FORT MADISON * CLEAR     66  63  88 W6        30.14S
KEOKUK *       CLEAR     68  63  83 W5        30.13S
OSKALOOSA *      N/A     63  60  91 W5        30.14S
CENTERVILLE *  CLEAR     64  61  88 W6        30.17S
OTTUMWA        CLEAR     64  60  87 W7        30.12S
6HR MIN TEMP:  64; 6HR MAX TEMP:  78;

WASHINGTON *   CLEAR     66  63  88 W8        30.13S
$$

ABBREVIATIONS USED IN REMARKS
   TC - TEMPERATURES IN CELSIUS
  WCI - WIND CHILL INDEX
   HX - HEAT INDEX
  VSB - VISIBILITY
$$




USA.gov is the U.S. government's official web portal to all federal, state and local government web resources and services.